CW9928 Weather Reports


time (UTC)temp
C
wind
direction
speed
KPH
gust
KPH
rain 1hr
cm
rain 24hr
cm
rain mn
cm
humidity
%
barometer
mb
20260507160602 10 46 0.0 12.9 0.00 0.05 0.00 64 1013.1
20260507160042 10 339 0.0 6.4 0.00 0.05 0.00 65 1013.2
20260507155501 10 339 1.6 8.0 0.00 0.05 0.00 65 1013.3
20260507155047 10 340 1.6 8.0 0.00 0.05 0.00 65 1013.3
20260507154532 10 59 0.0 11.3 0.00 0.05 0.00 67 1013.3
20260507154004 10 70 1.6 11.3 0.00 0.05 0.00 67 1013.3
20260507153548 10 48 3.2 9.7 0.00 0.05 0.00 68 1013.3
20260507153028 10 277 0.0 12.9 0.00 0.05 0.00 67 1013.4
20260507152509 10 266 0.0 14.5 0.00 0.05 0.00 64 1013.4
20260507152052 10 266 6.4 14.5 0.00 0.05 0.00 63 1013.4
20260507151540 10 277 0.0 11.3 0.00 0.05 0.00 65 1013.4
20260507151013 10 291 1.6 11.3 0.00 0.05 0.00 63 1013.4
20260507150556 9 292 3.2 11.3 0.00 0.05 0.00 63 1013.4
20260507150037 9 321 0.0 8.0 0.00 0.05 0.00 66 1013.4
20260507145602 9 321 0.0 8.0 0.00 0.05 0.00 65 1013.4
20260507145041 9 321 1.6 8.0 0.00 0.05 0.00 67 1013.4
20260507144521 9 322 1.6 8.0 0.00 0.05 0.00 65 1013.3
20260507144105 8 322 3.2 8.0 0.00 0.05 0.00 66 1013.4
20260507143544 8 321 0.0 8.0 0.00 0.05 0.00 67 1013.5
20260507143025 8 321 3.2 8.0 0.00 0.05 0.00 67 1013.5
20260507142504 8 325 3.2 9.7 0.00 0.05 0.00 67 1013.5
20260507142046 8 325 3.2 9.7 0.00 0.05 0.00 68 1013.4
20260507141527 8 329 4.8 9.7 0.00 0.05 0.00 68 1013.5
20260507141012 8 341 0.0 6.4 0.00 0.10 0.00 67 1013.4
20260507140551 8 341 0.0 8.0 0.00 0.10 0.00 69 1013.6
20260507140031 8 342 1.6 6.4 0.00 0.10 0.00 69 1013.8
20260507135557 7 342 0.0 6.4 0.00 0.10 0.00 69 1013.8
20260507135037 7 342 0.0 6.4 0.00 0.10 0.00 71 1013.7
20260507134529 7 342 0.0 8.0 0.00 0.10 0.00 72 1013.7
20260507134103 7 342 1.6 8.0 0.00 0.10 0.00 72 1013.8
20260507133540 7 62 0.0 1.6 0.00 0.10 0.00 72 1013.9
20260507133021 7 62 0.0 3.2 0.00 0.10 0.00 72 1013.9
20260507132604 7 62 0.0 6.4 0.00 0.10 0.00 72 1014.0
20260507132044 7 63 3.2 6.4 0.00 0.10 0.00 72 1014.0
20260507131531 7 65 0.0 3.2 0.00 0.10 0.00 72 1013.9
20260507131003 6 65 0.0 3.2 0.00 0.13 0.00 73 1013.9
20260507130550 6 64 0.0 3.2 0.00 0.13 0.00 74 1013.9
20260507130009 6 64 0.0 3.2 0.00 0.13 0.00 73 1013.9
20260507125553 6 64 0.0 6.4 0.00 0.13 0.00 74 1013.9
20260507125032 6 64 0.0 6.4 0.00 0.13 0.00 74 1014.0
20260507124512 6 65 0.0 6.4 0.00 0.13 0.00 75 1014.0
20260507124100 6 65 0.0 8.0 0.00 0.13 0.00 76 1014.0
20260507123536 6 65 1.6 8.0 0.00 0.13 0.00 77 1013.9
20260507123020 6 65 1.6 8.0 0.00 0.13 0.00 78 1014.0
20260507122603 5 65 1.6 8.0 0.00 0.13 0.00 78 1013.9
20260507122043 5 64 0.0 4.8 0.00 0.13 0.00 82 1013.9
20260507121520 5 64 0.0 6.4 0.00 0.13 0.00 85 1013.9
20260507121104 5 64 0.0 6.4 0.00 0.15 0.00 86 1013.9
20260507120543 5 64 0.0 3.2 0.00 0.15 0.00 87 1014.0
20260507120006 4 64 0.0 0.0 0.00 0.15 0.00 87 1013.9
20260507115548 4 64 0.0 0.0 0.00 0.15 0.00 88 1014.0
20260507115028 4 64 0.0 0.0 0.00 0.15 0.00 88 1014.1
20260507114513 4 64 0.0 0.0 0.00 0.15 0.00 88 1014.1
20260507114054 4 64 0.0 0.0 0.00 0.15 0.00 88 1014.0
20260507113532 4 64 0.0 0.0 0.00 0.15 0.00 88 1013.9
20260507113012 4 64 0.0 3.2 0.00 0.15 0.00 89 1014.1
20260507112556 4 64 0.0 3.2 0.00 0.15 0.00 89 1014.0
20260507112036 3 64 0.0 0.0 0.00 0.15 0.00 89 1014.2
20260507111521 3 64 0.0 0.0 0.00 0.15 0.00 90 1014.2
20260507111059 3 64 0.0 1.6 0.00 0.20 0.00 91 1014.4
20260507110540 3 64 0.0 1.6 0.00 0.20 0.00 91 1014.5
20260507110001 3 64 0.0 6.4 0.00 0.20 0.00 92 1014.3
20260507105544 3 64 0.0 6.4 0.00 0.20 0.00 92 1014.3
20260507105025 4 65 0.0 0.0 0.00 0.20 0.00 93 1014.1
20260507104507 4 65 0.0 0.0 0.00 0.20 0.00 93 1014.0
20260507104050 4 65 0.0 1.6 0.00 0.20 0.00 93 1014.0
20260507103528 3 65 0.0 1.6 0.00 0.20 0.00 93 1014.1
20260507103009 3 65 0.0 0.0 0.00 0.20 0.00 93 1014.1
20260507102553 3 65 0.0 0.0 0.00 0.20 0.00 93 1013.9
20260507102033 3 65 0.0 0.0 0.00 0.20 0.00 93 1013.6
20260507101518 3 65 0.0 0.0 0.00 0.20 0.00 92 1013.5
20260507101056 3 65 0.0 0.0 0.00 0.28 0.00 92 1013.5
20260507100533 3 65 0.0 0.0 0.00 0.28 0.00 92 1013.5
20260507100118 3 65 0.0 0.0 0.00 0.28 0.00 92 1013.4
20260507095540 3 65 0.0 0.0 0.00 0.28 0.00 92 1013.3
20260507095020 3 65 0.0 0.0 0.00 0.28 0.00 93 1013.3
20260507094621 3 65 0.0 0.0 0.00 0.28 0.00 93 1013.3
20260507094044 3 65 0.0 0.0 0.00 0.28 0.00 92 1013.5
20260507093523 3 65 0.0 0.0 0.00 0.28 0.00 92 1013.6
20260507093003 3 65 0.0 0.0 0.00 0.28 0.00 92 1013.6
20260507092549 3 65 0.0 0.0 0.00 0.28 0.00 92 1013.6
20260507092026 3 65 0.0 0.0 0.00 0.28 0.00 92 1013.6
20260507091507 3 65 0.0 0.0 0.00 0.28 0.00 92 1013.6
20260507091055 3 65 0.0 0.0 0.00 0.38 0.00 92 1013.5
20260507090531 3 65 0.0 0.0 0.00 0.38 0.00 92 1013.5
20260507090116 3 65 0.0 0.0 0.00 0.38 0.00 92 1013.5
20260507085537 3 65 0.0 0.0 0.00 0.38 0.00 92 1013.6
20260507085016 3 65 0.0 0.0 0.00 0.38 0.00 92 1013.5
20260507084603 3 65 0.0 0.0 0.00 0.38 0.00 92 1013.3
20260507084040 4 65 0.0 0.0 0.00 0.38 0.00 92 1013.2
20260507083520 4 65 0.0 0.0 0.00 0.38 0.00 92 1013.3
20260507083104 4 65 0.0 0.0 0.00 0.38 0.00 92 1013.3
20260507082544 4 65 0.0 0.0 0.00 0.38 0.00 92 1013.5
20260507082027 3 65 0.0 0.0 0.00 0.38 0.00 92 1013.6
20260507081511 3 65 0.0 0.0 0.00 0.38 0.00 92 1013.6
20260507081048 3 65 0.0 0.0 0.00 0.51 0.00 92 1013.6
20260507080528 3 65 0.0 0.0 0.00 0.51 0.00 92 1013.6
20260507080111 3 65 0.0 0.0 0.00 0.51 0.00 92 1013.6
20260507075533 3 65 0.0 0.0 0.00 0.51 0.00 92 1013.5
20260507075013 3 65 0.0 0.0 0.00 0.51 0.00 92 1013.5
20260507074559 4 65 0.0 0.0 0.00 0.51 0.00 91 1013.5
20260507074037 4 65 0.0 0.0 0.00 0.51 0.00 91 1013.5
20260507073511 4 65 0.0 0.0 0.00 0.51 0.00 91 1013.4
20260507073059 4 65 0.0 0.0 0.00 0.51 0.00 91 1013.4
20260507072536 4 65 0.0 0.0 0.00 0.51 0.00 91 1013.3
20260507072014 4 65 0.0 0.0 0.00 0.51 0.00 91 1013.3
20260507071601 4 65 0.0 0.0 0.00 0.51 0.00 91 1013.4
20260507071039 4 65 0.0 0.0 0.00 0.66 0.00 91 1013.3
20260507070519 4 65 0.0 0.0 0.00 0.66 0.00 91 1013.3
20260507070109 4 65 0.0 0.0 0.00 0.66 0.00 91 1013.3
20260507065525 4 65 0.0 0.0 0.00 0.66 0.00 91 1013.3
20260507065004 4 65 0.0 0.0 0.00 0.66 0.00 91 1013.4
20260507064549 4 65 0.0 0.0 0.00 0.66 0.00 91 1013.4
20260507064030 5 65 0.0 0.0 0.00 0.66 0.00 91 1013.5
20260507063508 5 65 0.0 0.0 0.00 0.66 0.00 90 1013.5
20260507063054 5 65 0.0 0.0 0.00 0.66 0.00 90 1013.4
20260507062532 5 65 0.0 0.0 0.00 0.66 0.00 91 1013.5
20260507062013 5 65 0.0 0.0 0.00 0.66 0.00 90 1013.6
20260507061558 5 65 0.0 0.0 0.00 0.66 0.00 90 1013.7
20260507061036 5 65 0.0 0.0 0.00 0.71 0.00 90 1013.7
20260507060516 5 65 0.0 0.0 0.00 0.71 0.00 90 1013.7
20260507060111 5 65 0.0 0.0 0.00 0.71 0.00 90 1013.8
20260507055513 5 65 0.0 0.0 0.00 0.71 0.00 91 1013.8
20260507055057 5 65 0.0 0.0 0.00 0.71 0.00 91 1013.9
20260507054537 5 65 0.0 0.0 0.00 0.71 0.00 91 1013.7
20260507054017 5 65 0.0 0.0 0.00 0.71 0.00 91 1013.7
20260507053601 5 65 0.0 0.0 0.00 0.71 0.00 91 1013.7
20260507053049 5 65 0.0 0.0 0.00 0.71 0.00 91 1013.9
20260507052521 5 65 0.0 0.0 0.00 0.71 0.00 91 1014.0
20260507052003 5 65 0.0 0.0 0.00 0.71 0.00 91 1013.8
20260507051545 5 65 0.0 0.0 0.00 0.71 0.00 91 1013.7
20260507051023 5 65 0.0 0.0 0.00 0.79 0.00 91 1013.9
20260507050503 5 65 0.0 0.0 0.00 0.79 0.00 91 1013.9
20260507050047 5 65 0.0 0.0 0.00 0.79 0.00 91 1013.8
20260507045510 5 65 0.0 0.0 0.00 0.79 0.00 90 1014.0
20260507045054 5 65 0.0 0.0 0.00 0.79 0.00 90 1013.8
20260507044534 5 65 0.0 0.0 0.00 0.79 0.00 90 1014.0
20260507044013 5 65 0.0 0.0 0.00 0.79 0.00 90 1013.8
20260507043557 5 65 0.0 0.0 0.00 0.79 0.00 90 1014.1
20260507043038 5 65 0.0 0.0 0.00 0.79 0.00 90 1013.9
20260507042517 5 65 0.0 0.0 0.00 0.79 0.00 90 1014.1
20260507042100 5 65 0.0 0.0 0.00 0.79 0.00 90 1014.1
20260507041541 5 65 0.0 0.0 0.00 0.79 0.00 90 1014.0
20260507041021 5 65 0.0 0.0 0.00 0.81 0.79 90 1014.0
20260507040500 5 65 0.0 0.0 0.00 0.81 0.79 90 1014.0
20260507040044 5 65 0.0 0.0 0.00 0.81 0.79 90 1014.1
20260507035506 5 65 0.0 0.0 0.00 0.81 0.79 90 1013.8
20260507035051 5 65 0.0 0.0 0.00 0.81 0.79 90 1013.9
20260507034549 5 65 0.0 0.0 0.00 0.81 0.79 90 1013.8
20260507034011 5 65 0.0 0.0 0.00 0.81 0.79 89 1014.0
20260507033556 5 65 0.0 0.0 0.00 0.81 0.79 89 1014.1
20260507033041 5 65 0.0 0.0 0.00 0.81 0.79 89 1014.1
20260507032514 5 65 0.0 0.0 0.00 0.81 0.79 89 1014.0
20260507032057 5 65 0.0 0.0 0.00 0.81 0.79 89 1013.9
20260507031537 6 65 0.0 0.0 0.00 0.81 0.79 89 1014.0
20260507031018 6 65 0.0 0.0 0.00 0.89 0.79 89 1013.9
20260507030601 6 65 0.0 0.0 0.00 0.89 0.79 88 1013.9
20260507030041 6 65 0.0 0.0 0.00 0.89 0.79 88 1014.0
20260507025501 6 65 0.0 0.0 0.00 0.89 0.79 87 1014.0
20260507025045 6 65 0.0 0.0 0.00 0.89 0.79 87 1014.0
20260507024543 6 65 0.0 0.0 0.00 0.89 0.79 87 1013.9
20260507024005 6 65 0.0 0.0 0.00 0.89 0.79 87 1013.9
20260507023549 6 65 0.0 0.0 0.00 0.89 0.79 87 1013.8
20260507023030 6 65 0.0 0.0 0.00 0.89 0.79 87 1013.9
20260507022510 6 65 0.0 0.0 0.00 0.89 0.79 87 1013.7
20260507022054 6 65 0.0 0.0 0.00 0.89 0.79 88 1013.8
20260507021542 6 65 0.0 0.0 0.00 0.89 0.79 87 1013.7
20260507021013 6 65 0.0 0.0 0.00 1.07 0.79 87 1013.9
20260507020558 6 65 0.0 0.0 0.00 1.07 0.79 87 1014.0
20260507020038 6 65 0.0 0.0 0.00 1.07 0.79 87 1014.0
20260507015605 6 65 0.0 0.0 0.00 1.07 0.79 87 1014.1
20260507015043 6 65 0.0 0.0 0.00 1.07 0.79 88 1014.3
20260507014535 6 65 0.0 0.0 0.00 1.07 0.79 87 1014.4
20260507014004 6 65 0.0 0.0 0.00 1.07 0.79 87 1014.5
20260507013550 6 65 0.0 0.0 0.00 1.07 0.79 87 1014.5
20260507013027 6 65 0.0 0.0 0.00 1.07 0.79 86 1014.5
20260507012509 6 65 0.0 0.0 0.00 1.07 0.79 85 1014.3
20260507012053 6 65 0.0 0.0 0.00 1.07 0.79 85 1014.2
20260507011539 6 65 0.0 0.0 0.00 1.07 0.79 85 1014.2
20260507011011 6 65 0.0 0.0 0.00 1.30 0.79 85 1014.0
20260507010552 6 65 0.0 0.0 0.00 1.30 0.79 85 1013.9
20260507010033 6 65 0.0 0.0 0.00 1.30 0.79 84 1013.9
20260507005559 6 65 0.0 0.0 0.00 1.30 0.79 84 1013.8
20260507005041 6 65 0.0 0.0 0.00 1.30 0.79 84 1013.9
20260507004519 7 65 0.0 0.0 0.00 1.30 0.79 83 1013.6
20260507004104 7 65 0.0 0.0 0.00 1.30 0.79 83 1013.5
20260507003544 7 65 0.0 0.0 0.00 1.30 0.79 82 1013.4
20260507003023 7 65 0.0 0.0 0.00 1.30 0.79 82 1013.3
20260507002502 7 65 0.0 0.0 0.00 1.30 0.79 82 1013.3
20260507002046 7 65 0.0 0.0 0.00 1.30 0.79 81 1013.3
20260507001528 7 65 0.0 0.0 0.00 1.30 0.79 82 1013.3
20260507001006 7 65 0.0 0.0 0.00 1.50 0.79 81 1013.5
20260507000552 7 65 0.0 0.0 0.00 1.50 0.79 81 1013.4
20260507000031 7 65 0.0 0.0 0.00 1.50 0.79 81 1013.3
20260506235556 7 65 0.0 0.0 0.00 1.50 0.79 81 1013.3
20260506235035 7 65 0.0 0.0 0.00 1.50 0.79 82 1013.2
20260506234515 7 65 0.0 0.0 0.00 1.50 0.79 82 1013.1
20260506234102 7 65 0.0 0.0 0.00 1.50 0.79 82 1013.1
20260506233540 7 65 0.0 0.0 0.00 1.50 0.79 82 1013.1
20260506233020 7 65 0.0 0.0 0.00 1.50 0.79 82 1013.1
20260506232603 7 65 0.0 0.0 0.00 1.50 0.79 81 1013.4
20260506232044 7 65 0.0 0.0 0.00 1.50 0.79 81 1013.3
20260506231524 8 65 0.0 3.2 0.00 1.50 0.79 81 1013.1
20260506231005 8 65 0.0 8.0 0.00 1.70 0.79 82 1013.2
20260506230547 8 65 0.0 8.0 0.00 1.70 0.79 82 1013.1
20260506230013 8 67 0.0 0.0 0.00 1.70 0.79 82 1013.0
20260506225553 8 67 0.0 0.0 0.00 1.70 0.79 85 1013.0
20260506225037 7 67 0.0 0.0 0.00 1.70 0.79 86 1012.9
20260506224515 7 67 0.0 6.4 0.00 1.70 0.79 87 1012.8
20260506224058 7 67 0.0 6.4 0.00 1.70 0.79 87 1012.7
20260506223537 7 65 0.0 8.0 0.00 1.70 0.79 89 1012.7
20260506223010 7 65 0.0 6.4 0.00 1.70 0.79 90 1012.6
20260506222554 6 65 0.0 6.4 0.00 1.70 0.79 90 1012.6
20260506222037 6 66 0.0 6.4 0.00 1.70 0.79 90 1012.5
20260506221515 6 67 0.0 6.4 0.00 1.70 0.79 90 1012.5
20260506221058 6 67 0.0 9.7 0.00 2.03 0.79 90 1012.3
20260506220538 6 67 0.0 9.7 0.03 2.03 0.79 91 1012.3
20260506220122 6 50 0.0 8.0 0.03 2.03 0.79 91 1012.2
20260506215544 6 49 0.0 8.0 0.03 2.03 0.79 91 1012.2
20260506215024 6 49 0.0 8.0 0.03 2.03 0.79 92 1012.2
20260506214504 6 49 0.0 8.0 0.03 2.03 0.79 91 1012.3
20260506214049 6 49 3.2 8.0 0.03 2.03 0.79 91 1012.4
20260506213528 6 48 0.0 8.0 0.03 2.03 0.79 91 1012.3
20260506213009 6 48 0.0 6.4 0.03 2.03 0.79 91 1012.5
20260506212552 6 48 0.0 6.4 0.03 2.03 0.79 91 1012.5
20260506212032 6 48 0.0 11.3 0.03 2.03 0.79 91 1012.3
20260506211512 6 48 1.6 11.3 0.05 2.03 0.79 91 1012.3
20260506211056 6 40 0.0 1.6 0.05 2.13 0.79 91 1012.2
20260506210538 6 38 0.0 3.2 0.03 2.11 0.76 91 1012.1
20260506210122 6 38 0.0 12.9 0.03 2.11 0.76 91 1012.1
20260506205542 6 47 0.0 11.3 0.03 2.11 0.76 91 1012.1
20260506205022 6 48 0.0 11.3 0.03 2.11 0.76 91 1012.1
20260506204504 5 37 0.0 6.4 0.03 2.11 0.76 91 1012.0
20260506204050 5 37 0.0 8.0 0.03 2.11 0.76 90 1012.0
20260506203528 5 36 1.6 9.7 0.03 2.11 0.76 90 1012.0
20260506203012 5 266 1.6 9.7 0.03 2.11 0.76 90 1012.0
20260506202550 5 291 0.0 8.0 0.03 2.11 0.76 89 1012.0
20260506202030 6 305 0.0 8.0 0.00 2.08 0.71 88 1012.1
20260506201512 6 2 0.0 6.4 0.00 2.08 0.71 88 1012.0
20260506201057 6 2 0.0 9.7 0.00 2.08 0.71 87 1011.9
20260506200533 6 289 1.6 11.3 0.00 2.08 0.71 87 1011.9
20260506200118 7 25 1.6 12.9 0.00 2.08 0.71 86 1011.9
20260506195539 7 277 1.6 14.5 0.00 2.08 0.71 85 1011.8
20260506195020 8 304 0.0 11.3 0.00 2.08 0.71 85 1011.4
20260506194603 8 304 4.8 11.3 0.00 2.08 0.71 85 1011.3
20260506194042 9 266 1.6 14.5 0.00 2.08 0.71 85 1011.1
20260506193521 9 255 3.2 16.1 0.00 2.08 0.71 83 1010.9
20260506193001 10 142 1.6 16.1 0.00 2.08 0.71 83 1010.7
20260506192545 10 56 1.6 9.7 0.00 2.08 0.71 82 1010.5
20260506192025 10 354 0.0 3.2 0.00 2.08 0.71 82 1010.6
20260506191503 11 360 0.0 3.2 0.00 2.08 0.71 82 1010.4
20260506191047 11 360 0.0 3.2 0.00 2.08 0.71 81 1010.2
20260506190528 11 360 0.0 3.2 0.00 2.08 0.71 81 1010.2
20260506190111 11 343 0.0 3.2 0.00 2.08 0.71 81 1010.2
20260506185533 11 343 0.0 8.0 0.00 2.08 0.71 79 1010.2
20260506185016 11 343 0.0 8.0 0.00 2.08 0.71 78 1010.2
20260506184558 12 343 0.0 3.2 0.00 2.08 0.71 80 1010.1
20260506184039 11 343 0.0 3.2 0.00 2.08 0.71 81 1010.1
20260506183519 11 343 0.0 6.4 0.00 2.08 0.71 81 1010.2
20260506183108 11 343 1.6 6.4 0.00 2.08 0.71 83 1010.2
20260506182541 10 343 0.0 6.4 0.00 2.08 0.71 82 1010.4
20260506182021 10 343 1.6 6.4 0.00 2.08 0.71 82 1010.5
20260506181502 10 350 0.0 3.2 0.00 2.08 0.71 83 1010.5
20260506181045 10 350 0.0 0.0 0.00 2.08 0.71 83 1010.4
20260506180524 10 350 0.0 0.0 0.00 2.08 0.71 84 1010.5
20260506180107 10 350 0.0 8.0 0.00 2.08 0.71 85 1010.5
20260506175532 10 350 1.6 8.0 0.00 2.08 0.71 85 1010.5
20260506175010 10 350 0.0 6.4 0.00 2.08 0.71 86 1010.5
20260506174601 10 350 0.0 6.4 0.00 2.08 0.71 86 1010.4
20260506174034 10 65 0.0 3.2 0.00 2.08 0.71 88 1010.4
20260506173515 9 65 0.0 6.4 0.00 2.08 0.71 88 1010.4
20260506173127 9 65 1.6 6.4 0.00 2.08 0.71 88 1010.4
20260506172538 9 65 0.0 0.0 0.00 2.08 0.71 89 1010.6
20260506172020 9 65 0.0 0.0 0.00 2.08 0.71 90 1010.8
20260506171601 8 65 0.0 0.0 0.00 2.08 0.71 90 1010.8
20260506171041 8 65 0.0 0.0 0.00 2.08 0.71 90 1010.9
20260506170521 9 65 0.0 0.0 0.00 2.08 0.71 91 1010.8
20260506170105 9 65 0.0 0.0 0.00 2.08 0.71 91 1010.8
20260506165527 8 65 0.0 0.0 0.00 2.08 0.71 92 1010.8
20260506165013 8 65 0.0 3.2 0.00 2.08 0.71 92 1010.7
20260506164552 8 65 0.0 3.2 0.00 2.08 0.71 92 1010.6
20260506164033 8 65 0.0 0.0 0.00 2.08 0.71 92 1010.7
20260506163511 8 65 0.0 0.0 0.00 2.08 0.71 93 1010.6
20260506163056 8 65 0.0 0.0 0.00 2.08 0.71 93 1010.6
20260506162535 8 65 0.0 0.0 0.00 2.08 0.71 93 1010.5
20260506162015 8 65 0.0 0.0 0.00 2.08 0.71 93 1010.5
20260506161610 8 65 0.0 0.0 0.00 2.08 0.71 93 1010.5
20260506161041 8 65 0.0 0.0 0.00 2.08 0.71 93 1010.6